Regional Weather Roundup
Issued by NWS Sioux Falls, SD

Home | Current Version | Previous Version | Graphics & Text | Print | Product List | Glossary On
Versions: 1 2 3 4 5 6 7 8 9 10 11 12 13 14 15 16 17 18 19 20 21 22 23 24 25 26 27 28 29 30 31 32 33 34 35 36 37 38 39 40 41 42 43 44 45 46 47 48 49 50
315
ASUS43 KFSD 260910
RWRFSD

WEATHER ROUNDUP FOR SE SOUTH DAKOTA/SW MINNESOTA/NW IOWA
NATIONAL WEATHER SERVICE SIOUX FALLS SD
400 AM CDT SUN MAR 26 2017

NOTE: "FAIR" INDICATES FEW OR NO CLOUDS BELOW 12,000 FEET WITH NO
SIGNIFICANT WEATHER AND OR OBSTRUCTIONS TO VISIBILITY.


SDZ038>040-050-052>070-261000-
SOUTHEAST SOUTH DAKOTA

CITY           SKY/WX    TMP DP  RH WIND       PRES   REMARKS
BROOKINGS      CLOUDY    36  35  96 E5        29.91F FOG
CHAMBERLAIN    CLOUDY    40  40 100 SE3       29.91S
HURON          CLOUDY    39  38  96 E3        29.93F
MADISON        FOG       36  36 100 E7        29.91F VSB 1
MITCHELL       CLOUDY    39  38  96 CALM      29.93F FOG
SIOUX FALLS    CLOUDY    38  37  97 E6        29.91F FOG
WINNER         CLOUDY    41  38  89 S6        29.90S
YANKTON        CLOUDY    37  36  93 NE3       29.91F
$$

MNZ071-072-080-081-089-090-097-098-261000-
SOUTHWEST MINNESOTA

CITY           SKY/WX    TMP DP  RH WIND       PRES   REMARKS
FAIRMONT       CLOUDY    36  35  96 NE8       29.91F
JACKSON        DRIZZLE   36  36 100 NE5       29.91S
LUVERNE        CLOUDY    36  34  93 NE5       29.92F FOG
MARSHALL       CLOUDY    37  35  92 NE3       29.94F
MONTEVIDEO     CLOUDY    36  36 100 E3        29.97F
PIPESTONE      FOG       36  34  93 SE3       29.90F VSB 1/4
REDWOOD FALLS  CLOUDY    38  35  89 N3        29.94F FOG
TRACY          CLOUDY    37  37  99 NE3       29.94F FOG
WINDOM         LGT RAIN  36  36 100 NE5       29.92S
WORTHINGTON    FOG       35  35 100 NE7       29.91F VSB 1/2 WCI  29
$$

IAZ001>003-012>014-020>022-031-032-NEZ013-014-SDZ071-261000-
NORTHWEST IOWA

CITY           SKY/WX    TMP DP  RH WIND       PRES   REMARKS
CHEROKEE       CLOUDY    37  37 100 NE5       29.90F FOG
ESTHERVILLE    CLOUDY    36  36 100 NE8       29.89F
LE MARS        CLOUDY    37  37 100 NE7       29.91F FOG
ORANGE CITY    CLOUDY    37  37 100 NE6       29.90F FOG
SHELDON        CLOUDY    36  36 100 NE6       29.89F FOG
SIOUX CITY     CLOUDY    39  39 100 NE6       29.90F
SPENCER        CLOUDY    37  36  96 N6        29.90F
STORM LAKE     CLOUDY    37  36  93 NE8       29.89F FOG
$$

ABBREVIATIONS USED IN REMARKS
   TC - TEMPERATURE IN CELSIUS
  WCI - WIND CHILL INDEX
   HX - HEAT INDEX
  VSB - VISIBILITY





USA.gov is the U.S. government's official web portal to all federal, state and local government web resources and services.